DLH7YA EDDF-UKLL

Flight info

Callsign DLH7YA
Flight time 1h 27m
Altitude 35000
Route SULUS4D SULUS L984 KULOK DCT OKG DCT PADKA DCT DIBED
Aircraft A21N/M-SDE2E3FGHIRWXY/LB1

Departure

Time 2026-05-05 00:29
Airport Frankfurt Main Airport (EDDF)

Arrival

Time 2026-05-05 01:57
Airport Lviv International Airport (UKLL)
Time Latitude Longitude Altitude Speed Heading
2026-05-05 00:15 50.04579 8.56624 361 ft 0 kts 115°
2026-05-05 00:18 50.04587 8.56598 367 ft 3 kts 115°
2026-05-05 00:18 50.04596 8.56570 362 ft 3 kts 116°
2026-05-05 00:19 50.04605 8.56542 367 ft 3 kts 121°
2026-05-05 00:19 50.04616 8.56517 361 ft 3 kts 135°
2026-05-05 00:19 50.04630 8.56501 361 ft 3 kts 175°
2026-05-05 00:19 50.04635 8.56500 361 ft 3 kts 204°
2026-05-05 00:20 50.04617 8.56487 365 ft 3 kts 204°
2026-05-05 00:20 50.04598 8.56474 363 ft 3 kts 204°
2026-05-05 00:20 50.04580 8.56461 361 ft 3 kts 204°
2026-05-05 00:20 50.04563 8.56449 362 ft 1 kts 205°
2026-05-05 00:22 50.04561 8.56448 364 ft 2 kts 205°
2026-05-05 00:22 50.04532 8.56417 367 ft 9 kts 229°
2026-05-05 00:23 50.04501 8.56319 365 ft 11 kts 249°
2026-05-05 00:23 50.04471 8.56193 362 ft 13 kts 249°
2026-05-05 00:23 50.04434 8.56059 365 ft 15 kts 224°
2026-05-05 00:23 50.04334 8.56058 363 ft 16 kts 159°
2026-05-05 00:24 50.04283 8.56199 364 ft 17 kts 121°
2026-05-05 00:24 50.04175 8.56273 361 ft 18 kts 166°
2026-05-05 00:24 50.04096 8.56151 365 ft 19 kts 252°
2026-05-05 00:24 50.04051 8.55954 361 ft 20 kts 250°
2026-05-05 00:25 50.04001 8.55749 358 ft 21 kts 250°
2026-05-05 00:25 50.03950 8.55535 356 ft 22 kts 250°
2026-05-05 00:25 50.03896 8.55310 356 ft 23 kts 250°
2026-05-05 00:25 50.03840 8.55075 355 ft 24 kts 250°
2026-05-05 00:26 50.03782 8.54831 354 ft 25 kts 250°
2026-05-05 00:26 50.03761 8.54746 356 ft 0 kts 249°
2026-05-05 00:26 50.03745 8.54678 354 ft 18 kts 249°
2026-05-05 00:26 50.03699 8.54487 352 ft 19 kts 250°
2026-05-05 00:27 50.03652 8.54290 350 ft 20 kts 249°
2026-05-05 00:27 50.03627 8.54212 349 ft 8 kts 219°
2026-05-05 00:27 50.03559 8.54219 353 ft 12 kts 157°
2026-05-05 00:27 50.03524 8.54333 350 ft 14 kts 111°
2026-05-05 00:28 50.03499 8.54457 351 ft 0 kts 69°
2026-05-05 00:29 50.03535 8.54603 358 ft 45 kts 72°
2026-05-05 00:29 50.03736 8.55449 353 ft 120 kts 69°
2026-05-05 00:29 50.04096 8.56949 417 ft 166 kts 69°
2026-05-05 00:29 50.04479 8.58665 1006 ft 170 kts 71°
2026-05-05 00:30 50.04834 8.60427 1689 ft 175 kts 72°
2026-05-05 00:30 50.05249 8.62303 2142 ft 191 kts 70°
2026-05-05 00:30 50.05725 8.64313 2638 ft 206 kts 70°
2026-05-05 00:30 50.06225 8.66502 3171 ft 222 kts 71°
2026-05-05 00:31 50.06748 8.68836 3770 ft 233 kts 72°
2026-05-05 00:31 50.07164 8.71284 4501 ft 236 kts 87°
2026-05-05 00:31 50.07038 8.73905 4997 ft 252 kts 102°
2026-05-05 00:31 50.06694 8.76666 5516 ft 268 kts 104°
2026-05-05 00:32 50.06333 8.79568 6249 ft 276 kts 104°
2026-05-05 00:32 50.05979 8.82523 7015 ft 280 kts 104°
2026-05-05 00:32 50.05760 8.85566 7788 ft 287 kts 94°
2026-05-05 00:32 50.05789 8.88688 8573 ft 291 kts 91°
2026-05-05 00:33 50.05854 8.91914 9355 ft 295 kts 91°
2026-05-05 00:33 50.05911 8.95083 10075 ft 300 kts 91°
2026-05-05 00:33 50.05970 8.98425 10464 ft 318 kts 91°
2026-05-05 00:33 50.06027 9.01959 10751 ft 337 kts 91°
2026-05-05 00:34 50.06092 9.05715 11031 ft 356 kts 91°
2026-05-05 00:34 50.06153 9.09665 11295 ft 374 kts 91°
2026-05-05 00:34 50.06218 9.13796 11558 ft 391 kts 91°
2026-05-05 00:34 50.06285 9.18116 11783 ft 405 kts 91°
2026-05-05 00:35 50.06351 9.22541 12234 ft 412 kts 91°
2026-05-05 00:35 50.06409 9.27014 12779 ft 414 kts 91°
2026-05-05 00:35 50.06464 9.31517 13366 ft 417 kts 91°
2026-05-05 00:35 50.06525 9.36049 13923 ft 420 kts 91°
2026-05-05 00:36 50.06583 9.40596 14387 ft 423 kts 91°
2026-05-05 00:36 50.06634 9.45193 14874 ft 426 kts 91°
2026-05-05 00:36 50.06688 9.49828 15437 ft 430 kts 91°
2026-05-05 00:36 50.06746 9.54502 15998 ft 434 kts 91°
2026-05-05 00:37 50.06802 9.59221 16533 ft 438 kts 91°
2026-05-05 00:37 50.06854 9.63983 17045 ft 442 kts 91°
2026-05-05 00:37 50.06902 9.68784 17547 ft 446 kts 91°
2026-05-05 00:37 50.06945 9.73634 18033 ft 450 kts 91°
2026-05-05 00:38 50.06991 9.78518 18487 ft 454 kts 91°
2026-05-05 00:38 50.07035 9.83460 18906 ft 457 kts 91°
2026-05-05 00:38 50.07077 9.88432 19320 ft 460 kts 91°
2026-05-05 00:38 50.07115 9.93428 19749 ft 463 kts 91°
2026-05-05 00:39 50.07156 9.98399 20154 ft 467 kts 91°
2026-05-05 00:39 50.07196 10.03470 20554 ft 470 kts 91°
2026-05-05 00:39 50.07230 10.08575 20968 ft 473 kts 92°
2026-05-05 00:39 50.07262 10.13769 21406 ft 476 kts 91°
2026-05-05 00:40 50.07289 10.18875 21837 ft 480 kts 92°
2026-05-05 00:40 50.07316 10.24092 22238 ft 483 kts 92°
2026-05-05 00:40 50.07339 10.29339 22621 ft 486 kts 92°
2026-05-05 00:40 50.07369 10.34620 22990 ft 489 kts 91°
2026-05-05 00:41 50.07404 10.39924 23353 ft 492 kts 91°
2026-05-05 00:41 50.07429 10.45260 23672 ft 494 kts 92°
2026-05-05 00:41 50.07446 10.50627 23968 ft 497 kts 92°
2026-05-05 00:41 50.07455 10.54186 24171 ft 497 kts 92°
2026-05-05 00:42 50.07469 10.59576 24538 ft 497 kts 92°
2026-05-05 00:42 50.07482 10.64942 24914 ft 496 kts 92°
2026-05-05 00:42 50.07492 10.70300 25307 ft 494 kts 92°
2026-05-05 00:42 50.07509 10.75651 25689 ft 493 kts 92°
2026-05-05 00:43 50.07514 10.80993 26079 ft 492 kts 93°
2026-05-05 00:43 50.07510 10.86314 26463 ft 491 kts 93°
2026-05-05 00:43 50.07514 10.91619 26856 ft 490 kts 93°
2026-05-05 00:43 50.07509 10.96915 27242 ft 489 kts 93°
2026-05-05 00:44 50.07495 11.02212 27617 ft 488 kts 94°
2026-05-05 00:44 50.07479 11.07486 27982 ft 488 kts 93°
2026-05-05 00:44 50.07466 11.12785 28365 ft 487 kts 93°
2026-05-05 00:44 50.07451 11.18056 28737 ft 486 kts 94°
2026-05-05 00:45 50.07437 11.23303 29121 ft 485 kts 94°
2026-05-05 00:45 50.07424 11.28549 29485 ft 484 kts 94°
2026-05-05 00:45 50.07409 11.33782 29824 ft 483 kts 94°
2026-05-05 00:45 50.07384 11.39002 30159 ft 482 kts 94°
2026-05-05 00:46 50.07361 11.44217 30435 ft 481 kts 94°
2026-05-05 00:46 50.07339 11.49418 30701 ft 480 kts 94°
2026-05-05 00:46 50.07310 11.54603 31045 ft 478 kts 94°
2026-05-05 00:46 50.07275 11.59764 31323 ft 477 kts 94°
2026-05-05 00:47 50.07240 11.64924 31582 ft 476 kts 94°
2026-05-05 00:47 50.07201 11.70000 31809 ft 476 kts 94°
2026-05-05 00:47 50.07164 11.75149 32061 ft 475 kts 94°
2026-05-05 00:47 50.07127 11.80306 32307 ft 475 kts 94°
2026-05-05 00:48 50.07081 11.85442 32546 ft 474 kts 94°
2026-05-05 00:48 50.07036 11.90570 32780 ft 474 kts 94°
2026-05-05 00:48 50.06991 11.95692 32971 ft 473 kts 94°
2026-05-05 00:48 50.06945 12.00806 33218 ft 472 kts 94°
2026-05-05 00:49 50.06901 12.05904 33442 ft 471 kts 94°
2026-05-05 00:49 50.06854 12.11021 33643 ft 471 kts 94°
2026-05-05 00:49 50.06795 12.16105 33826 ft 470 kts 94°
2026-05-05 00:49 50.06734 12.21197 33993 ft 470 kts 94°
2026-05-05 00:50 50.06676 12.26286 34128 ft 470 kts 94°
2026-05-05 00:50 50.06616 12.31307 34260 ft 470 kts 94°
2026-05-05 00:50 50.06548 12.36390 34388 ft 470 kts 94°
2026-05-05 00:50 50.06494 12.41483 34515 ft 471 kts 93°
2026-05-05 00:51 50.06502 12.46578 34666 ft 470 kts 92°
2026-05-05 00:51 50.06524 12.51664 34817 ft 470 kts 92°
2026-05-05 00:51 50.06538 12.56753 34940 ft 470 kts 92°
2026-05-05 00:52 50.06552 12.66929 34950 ft 470 kts 92°
2026-05-05 00:52 50.06542 12.77103 34934 ft 470 kts 93°
2026-05-05 00:53 50.06529 12.87276 34936 ft 470 kts 93°
2026-05-05 00:53 50.06497 12.97429 34930 ft 469 kts 93°
2026-05-05 00:54 50.06476 13.07583 34928 ft 469 kts 92°
2026-05-05 00:54 50.06445 13.17744 34911 ft 469 kts 93°
2026-05-05 00:55 50.06402 13.27831 34908 ft 469 kts 93°
2026-05-05 00:55 50.06355 13.37964 34910 ft 469 kts 93°
2026-05-05 00:56 50.06296 13.48124 34910 ft 469 kts 93°
2026-05-05 00:56 50.06230 13.58266 34908 ft 469 kts 93°
2026-05-05 00:57 50.06154 13.68418 34905 ft 469 kts 93°
2026-05-05 00:57 50.06067 13.78549 34910 ft 469 kts 93°
2026-05-05 00:58 50.05973 13.88749 34906 ft 473 kts 93°
2026-05-05 00:58 50.05876 13.98979 34908 ft 473 kts 93°
2026-05-05 00:59 50.05760 14.09217 34906 ft 473 kts 93°
2026-05-05 00:59 50.05635 14.19458 34905 ft 473 kts 93°
2026-05-05 01:00 50.05511 14.29685 34893 ft 473 kts 93°
2026-05-05 01:00 50.05372 14.39934 34914 ft 474 kts 93°
2026-05-05 01:01 50.05223 14.50193 34911 ft 474 kts 93°
2026-05-05 01:01 50.05070 14.60440 34904 ft 474 kts 93°
2026-05-05 01:02 50.04904 14.70677 34908 ft 474 kts 94°
2026-05-05 01:02 50.04720 14.80928 34913 ft 474 kts 93°
2026-05-05 01:03 50.04524 14.91187 34911 ft 474 kts 94°
2026-05-05 01:03 50.04327 15.01437 34916 ft 474 kts 93°
2026-05-05 01:04 50.04129 15.11693 34924 ft 474 kts 94°
2026-05-05 01:04 50.03813 15.27062 34916 ft 473 kts 94°
2026-05-05 01:05 50.03585 15.37225 34916 ft 473 kts 94°
2026-05-05 01:05 50.03353 15.47446 34914 ft 473 kts 94°
2026-05-05 01:06 50.03105 15.57666 34938 ft 473 kts 94°
2026-05-05 01:06 50.02848 15.67894 34933 ft 473 kts 94°
2026-05-05 01:07 50.02596 15.78105 34907 ft 472 kts 94°
2026-05-05 01:07 50.02323 15.88304 34906 ft 472 kts 94°
2026-05-05 01:08 50.02042 15.98504 34910 ft 472 kts 94°
2026-05-05 01:08 50.01749 16.08632 34921 ft 472 kts 94°
2026-05-05 01:09 50.01451 16.18831 34911 ft 472 kts 94°
2026-05-05 01:09 50.01145 16.29042 34930 ft 473 kts 94°
2026-05-05 01:10 50.00833 16.39253 34930 ft 473 kts 94°
2026-05-05 01:10 50.00511 16.49451 34939 ft 473 kts 94°
2026-05-05 01:11 50.00172 16.59663 34939 ft 472 kts 94°
2026-05-05 01:11 49.99832 16.69863 34941 ft 473 kts 94°
2026-05-05 01:12 49.99481 16.80079 34943 ft 473 kts 94°
2026-05-05 01:12 49.99121 16.90291 34946 ft 473 kts 94°
2026-05-05 01:13 49.98741 17.00506 34943 ft 473 kts 94°
2026-05-05 01:13 49.98362 17.10712 34936 ft 473 kts 94°
2026-05-05 01:14 49.97977 17.20889 34939 ft 472 kts 94°
2026-05-05 01:14 49.97592 17.31003 34940 ft 472 kts 94°
2026-05-05 01:15 49.97195 17.41186 34940 ft 472 kts 94°
2026-05-05 01:15 49.96787 17.51353 34940 ft 472 kts 94°
2026-05-05 01:16 49.96369 17.61522 34943 ft 471 kts 94°
2026-05-05 01:16 49.95940 17.71678 34944 ft 471 kts 94°
2026-05-05 01:17 49.95508 17.81832 34947 ft 471 kts 94°
2026-05-05 01:17 49.95054 17.92006 34939 ft 473 kts 94°
2026-05-05 01:18 49.94596 18.02192 34937 ft 473 kts 94°
2026-05-05 01:18 49.94133 18.12375 34938 ft 473 kts 94°
2026-05-05 01:19 49.93660 18.22562 34940 ft 473 kts 94°
2026-05-05 01:19 49.93421 18.32774 34940 ft 473 kts 89°
2026-05-05 01:20 49.93516 18.42977 34941 ft 473 kts 89°
2026-05-05 01:20 49.93615 18.53192 34939 ft 470 kts 89°
2026-05-05 01:21 49.93697 18.63339 34942 ft 470 kts 89°
2026-05-05 01:21 49.93768 18.73419 34943 ft 470 kts 89°
2026-05-05 01:22 49.93843 18.83572 34947 ft 470 kts 89°
2026-05-05 01:22 49.93905 18.93730 34956 ft 470 kts 89°
2026-05-05 01:23 49.93961 19.03880 34955 ft 470 kts 89°
2026-05-05 01:23 49.93982 19.14013 34958 ft 469 kts 89°
2026-05-05 01:24 49.94008 19.24129 34957 ft 468 kts 89°
2026-05-05 01:24 49.94044 19.34215 34970 ft 467 kts 89°
2026-05-05 01:25 49.94052 19.44287 34970 ft 466 kts 90°
2026-05-05 01:25 49.94053 19.54342 34979 ft 465 kts 89°
2026-05-05 01:26 49.94052 19.62674 34980 ft 464 kts 89°
2026-05-05 01:26 49.94040 19.74288 34966 ft 462 kts 89°
2026-05-05 01:27 49.94032 19.82645 34967 ft 462 kts 90°
2026-05-05 01:27 49.94015 19.92624 34970 ft 462 kts 90°
2026-05-05 01:28 49.93976 20.02586 34974 ft 461 kts 90°
2026-05-05 01:28 49.93944 20.12543 34981 ft 460 kts 90°
2026-05-05 01:29 49.93895 20.22476 34987 ft 460 kts 90°
2026-05-05 01:29 49.93829 20.32407 34989 ft 460 kts 90°
2026-05-05 01:30 49.93759 20.42258 34998 ft 459 kts 90°
2026-05-05 01:30 49.93673 20.52163 34998 ft 459 kts 90°
2026-05-05 01:31 49.93593 20.62058 34999 ft 458 kts 90°
2026-05-05 01:31 49.93506 20.71943 34998 ft 457 kts 90°
2026-05-05 01:32 49.93392 20.81814 34997 ft 457 kts 90°
2026-05-05 01:32 49.93278 20.91683 34999 ft 457 kts 90°
2026-05-05 01:33 49.93168 21.01532 34994 ft 456 kts 90°
2026-05-05 01:33 49.93042 21.11380 34994 ft 455 kts 90°
2026-05-05 01:34 49.92898 21.21139 34997 ft 455 kts 90°
2026-05-05 01:34 49.92749 21.30943 34990 ft 454 kts 90°
2026-05-05 01:35 49.92604 21.40777 34997 ft 460 kts 90°
2026-05-05 01:35 49.92442 21.50725 34993 ft 461 kts 90°
2026-05-05 01:36 49.92270 21.60682 34993 ft 461 kts 90°
2026-05-05 01:36 49.92080 21.70623 34994 ft 461 kts 90°
2026-05-05 01:37 49.91899 21.80563 34992 ft 461 kts 90°
2026-05-05 01:37 49.91806 21.85525 34742 ft 456 kts 90°
2026-05-05 01:37 49.91716 21.90414 34128 ft 452 kts 90°
2026-05-05 01:38 49.91617 21.95282 33455 ft 448 kts 90°
2026-05-05 01:38 49.91513 22.00026 32851 ft 444 kts 90°
2026-05-05 01:38 49.91406 22.04793 32209 ft 440 kts 90°
2026-05-05 01:38 49.91302 22.09575 31584 ft 436 kts 90°
2026-05-05 01:39 49.91203 22.14261 30983 ft 433 kts 91°
2026-05-05 01:39 49.91097 22.18908 30387 ft 429 kts 91°
2026-05-05 01:39 49.90991 22.23510 29778 ft 425 kts 91°
2026-05-05 01:39 49.90885 22.28075 29139 ft 421 kts 91°
2026-05-05 01:40 49.90782 22.32538 28505 ft 417 kts 91°
2026-05-05 01:40 49.90676 22.37011 27905 ft 413 kts 91°
2026-05-05 01:40 49.90570 22.41450 27276 ft 410 kts 91°
2026-05-05 01:40 49.90462 22.45857 26664 ft 407 kts 91°
2026-05-05 01:41 49.90355 22.50198 26087 ft 404 kts 91°
2026-05-05 01:41 49.90244 22.54551 25509 ft 400 kts 92°
2026-05-05 01:41 49.90127 22.58844 24977 ft 397 kts 92°
2026-05-05 01:41 49.90012 22.63115 24422 ft 394 kts 92°
2026-05-05 01:42 49.89901 22.67349 23908 ft 391 kts 92°
2026-05-05 01:42 49.89791 22.71532 23365 ft 388 kts 92°
2026-05-05 01:42 49.89676 22.75703 22734 ft 386 kts 92°
2026-05-05 01:42 49.89560 22.79843 22137 ft 383 kts 92°
2026-05-05 01:43 49.89445 22.83965 21550 ft 380 kts 92°
2026-05-05 01:43 49.89332 22.88057 20980 ft 378 kts 92°
2026-05-05 01:43 49.89219 22.92114 20466 ft 375 kts 92°
2026-05-05 01:43 49.89102 22.96079 19994 ft 371 kts 93°
2026-05-05 01:44 49.88981 23.00100 19521 ft 367 kts 93°
2026-05-05 01:44 49.88710 23.04000 19055 ft 362 kts 104°
2026-05-05 01:44 49.87780 23.07503 18627 ft 353 kts 124°
2026-05-05 01:44 49.86252 23.10432 18230 ft 346 kts 133°
2026-05-05 01:45 49.84989 23.13550 17889 ft 340 kts 114°
2026-05-05 01:45 49.84181 23.16980 17577 ft 337 kts 110°
2026-05-05 01:45 49.83448 23.20416 17210 ft 335 kts 110°
2026-05-05 01:45 49.82707 23.23824 16834 ft 333 kts 110°
2026-05-05 01:46 49.81952 23.27208 16467 ft 332 kts 110°
2026-05-05 01:46 49.81187 23.30584 16098 ft 331 kts 110°
2026-05-05 01:46 49.80419 23.33948 15738 ft 331 kts 111°
2026-05-05 01:46 49.79646 23.37308 15380 ft 332 kts 111°
2026-05-05 01:47 49.78866 23.40688 15011 ft 333 kts 111°
2026-05-05 01:47 49.78082 23.44067 14628 ft 335 kts 111°
2026-05-05 01:47 49.77295 23.47464 14245 ft 336 kts 111°
2026-05-05 01:47 49.76500 23.50882 13573 ft 339 kts 111°
2026-05-05 01:48 49.75706 23.54285 12905 ft 333 kts 111°
2026-05-05 01:48 49.74930 23.57600 12472 ft 322 kts 112°
2026-05-05 01:48 49.74182 23.60807 12039 ft 312 kts 112°
2026-05-05 01:48 49.73447 23.63937 11504 ft 308 kts 112°
2026-05-05 01:49 49.72728 23.66999 11121 ft 298 kts 112°
2026-05-05 01:49 49.72043 23.69917 10759 ft 286 kts 112°
2026-05-05 01:49 49.71372 23.72768 10285 ft 279 kts 112°
2026-05-05 01:49 49.70713 23.75567 9725 ft 276 kts 112°
2026-05-05 01:50 49.70058 23.78344 9107 ft 274 kts 112°
2026-05-05 01:50 49.69414 23.81079 8646 ft 266 kts 112°
2026-05-05 01:50 49.68792 23.83710 8291 ft 256 kts 112°
2026-05-05 01:50 49.68197 23.86231 7959 ft 244 kts 112°
2026-05-05 01:51 49.67627 23.88636 7572 ft 233 kts 112°
2026-05-05 01:51 49.67072 23.90965 7151 ft 230 kts 112°
2026-05-05 01:51 49.66513 23.93281 6651 ft 230 kts 111°
2026-05-05 01:51 49.65955 23.95601 6086 ft 232 kts 111°
2026-05-05 01:52 49.65386 23.97966 5487 ft 237 kts 111°
2026-05-05 01:52 49.64835 24.00394 4896 ft 243 kts 105°
2026-05-05 01:52 49.64851 24.02982 4316 ft 244 kts 71°
2026-05-05 01:52 49.65800 24.05069 3810 ft 237 kts 37°
2026-05-05 01:53 49.67078 24.06629 3472 ft 231 kts 34°
2026-05-05 01:53 49.68325 24.08152 3192 ft 225 kts 33°
2026-05-05 01:53 49.69560 24.09510 2966 ft 208 kts 25°
2026-05-05 01:53 49.70840 24.10057 2871 ft 182 kts 349°
2026-05-05 01:54 49.71945 24.09373 2907 ft 168 kts 317°
2026-05-05 01:54 49.72797 24.08183 2937 ft 163 kts 307°
2026-05-05 01:54 49.73544 24.07029 2858 ft 139 kts 307°
2026-05-05 01:54 49.74216 24.06006 2691 ft 134 kts 308°
2026-05-05 01:55 49.74883 24.05001 2517 ft 133 kts 307°
2026-05-05 01:55 49.75549 24.03999 2343 ft 134 kts 307°
2026-05-05 01:55 49.76222 24.02988 2173 ft 135 kts 308°
2026-05-05 01:55 49.76897 24.01974 2000 ft 135 kts 308°
2026-05-05 01:56 49.77466 24.01117 1827 ft 137 kts 309°
2026-05-05 01:56 49.78145 24.00097 1638 ft 138 kts 310°
2026-05-05 01:56 49.78837 23.99036 1448 ft 140 kts 312°
2026-05-05 01:56 49.79544 23.97990 1244 ft 139 kts 313°
2026-05-05 01:57 49.80225 23.96968 1079 ft 129 kts 314°
2026-05-05 01:57 49.80751 23.96174 1070 ft 77 kts 316°
2026-05-05 01:57 49.80998 23.95802 1068 ft 33 kts 318°
2026-05-05 01:57 49.81150 23.95584 1070 ft 21 kts 316°
2026-05-05 01:58 49.81240 23.95580 1073 ft 4 kts 50°
2026-05-05 01:58 49.81261 23.95620 1071 ft 6 kts 50°
2026-05-05 01:58 49.81278 23.95687 1071 ft 8 kts 96°
2026-05-05 01:58 49.81246 23.95770 1071 ft 10 kts 133°
2026-05-05 01:59 49.81218 23.95873 1071 ft 10 kts 62°
2026-05-05 01:59 49.81243 23.95890 1071 ft 2 kts 31°
2026-05-05 01:59 49.81259 23.95912 1071 ft 0 kts 46°
2026-05-05 01:59 49.81263 23.95917 1074 ft 0 kts 46°